Flag for Canada Weather past 2 weeks in Resolute Bay, Nunavut Territory, Canada

Now
32 °F

Mostly cloudy.


Feels Like: 21 °F
Forecast: 30 / 33 °F
Wind: 17 mph from West

Location: Resolute

Current Time: Aug 23, 2014 at 6:35:39 AM

Latest Report: Aug 23, 2014 at 6:00 AM


Visibility: 15 mi

Pressure: 30.24 "Hg

Humidity: 100%

Dew point: 32 °F

Location of Resolute BayLocation

Historic Weather in Resolute Bay — Graph

°F

Resolute Bay temperature yesterday

Maximum temperature yesterday: 34 °F (at 12:00 PM)
Minimum temperature yesterday: 30 °F (at 12:00 AM)
Average temperature yesterday: 32 °F

Past Weeks' High & Low Weather Summary

 TemperatureHumidityPressure
High50 °F (Aug 8, 6:00 PM)100% (Aug 9, 4:00 AM)30.25 "Hg (Aug 9, 4:00 AM)
Low28 °F (Aug 18, 4:00 AM)66% (Aug 11, 7:00 PM)29.54 "Hg (Aug 19, 11:00 PM)
Average36 °F91%29.84 "Hg
* Reported Aug 8 5:00 AM — Aug 23 5:00 AM, Resolute Bay, Weather by CustomWeather, © 2014

Note: Actual official high and low records may vary slightly from our data, if they occured in-between our weather recording intervals... More about our weather records

Advertising

Resolute Bay weather history for previous 24 hours

 ConditionsComfort  
Time TempWeatherWind HumidityBarometerVisibility
5:00 AM
Aug 23
32 °FLow clouds.10 mph100%30.24 "Hg15 mi
4:00 AM32 °FMostly cloudy.15 mph100%30.24 "Hg15 mi
3:00 AM32 °FLow clouds.10 mph100%30.25 "Hg15 mi
2:00 AM32 °FIce fog.9 mph100%30.24 "Hg1 mi
1:00 AM32 °FIce fog.12 mph100%30.24 "Hg1 mi
12:00 AM32 °FIce fog.9 mph100%30.24 "Hg1 mi
11:00 PM
Aug 22
32 °FIce fog.13 mph100%30.24 "Hg1 mi
10:00 PM32 °FIce fog.8 mph100%30.24 "Hg1 mi
9:00 PM32 °FIce fog.12 mph100%30.23 "Hg1 mi
8:00 PM32 °FIce fog.9 mph100%30.23 "Hg2 mi
7:48 PMN/AFog.12 mphN/AN/A2 mi
7:00 PM34 °FMore clouds than sun.10 mph93%30.22 "Hg15 mi
6:00 PM34 °FMostly cloudy.12 mph93%30.21 "Hg15 mi
5:00 PM34 °FLow clouds.12 mph93%30.20 "Hg15 mi
4:00 PM34 °FMostly cloudy.14 mph93%30.19 "Hg15 mi
3:00 PM34 °FMostly cloudy.10 mph100%30.17 "Hg15 mi
2:00 PM34 °FMostly cloudy.10 mph93%30.16 "Hg10 mi
1:00 PM34 °FFog.12 mph100%30.14 "Hg0 mi
12:49 PMN/AFog.12 mphN/AN/A0 mi
12:00 PM34 °FDrizzle. Mostly cloudy.9 mph100%30.14 "Hg6 mi
11:46 AMN/AMostly cloudy.8 mphN/AN/A10 mi
11:00 AM32 °FFog.9 mph100%30.13 "Hg0 mi
10:49 AMN/AFog.8 mphN/AN/A0 mi
10:00 AM32 °FIce fog.8 mph100%30.12 "Hg1 mi
9:00 AM32 °FIce fog.10 mph100%30.12 "Hg0 mi
8:00 AM32 °FIce fog.7 mph100%30.11 "Hg0 mi
7:00 AM32 °FIce fog.9 mph93%30.11 "Hg0 mi
6:00 AM30 °FSnow flurries. Ice fog.10 mph100%30.10 "Hg0 mi
Weather by CustomWeather, © 2014

See weather overviewHow to use our weather pages